Crane Lake, MN

9:25 AM CDT on September 21, 2019 (GMT -0500)
Crane Lake

Weather History for KCDD - August, 2019

Change the Weather History Date:

Saturday, August 17, 2019

  Actual Average Record
Temperature  
Mean Temperature 68 °F -  
Max Temperature 82 °F 73 °F 89 °F (2008)
Min Temperature 53 °F 52 °F 35 °F (2012)
Cooling Degree Days 2    
Growing Degree Days 18 (Base 50)    
Moisture  
Dew Point 57 °F    
Average Humidity 71    
Maximum Humidity 100    
Minimum Humidity 37    
Precipitation  
Precipitation 0.00 in - - ()
Sea Level Pressure  
Sea Level Pressure 29.76 in    
Wind  
Wind Speed 3 mph (SSW)    
Max Wind Speed 9 mph    
Max Gust Speed -    
Visibility 10 miles    
Events      
Averages and records for this station are not official NWS values.
T = Trace of Precipitation, MM = Missing Value Source: NWS Daily Summary

Daily Weather History Graph

Daily Weather History Graph

Search for Another Location

Airport or City:

Astronomy

Aug. 17, 2019 Rise Set
Actual Time 6:06 AM CDT 8:20 PM CDT
Civil Twilight 5:32 AM CDT 8:54 PM CDT
Nautical Twilight 4:49 AM CDT 9:36 PM CDT
Astronomical Twilight 4:01 AM CDT 10:24 PM CDT
Moon 9:40 PM CDT (8/17) 8:00 AM CDT (8/17)
Length of Visible Light 15h 22m
Length of Day
14h 13m
Waning Gibbous, 96% of the Moon is Illuminated
Aug 17
Waning Gibbous
Aug 23
Last Quarter
Aug 30
New
Sep 5
First Quarter
Sep 13
Full

Hourly Weather History & Observations

Time (CDT) Temp. Heat Index Dew Point Humidity Pressure Visibility Wind Dir Wind Speed Gust Speed Precip Events Conditions
12:46 AM 53.6 °F - 53.6 °F 100% 29.81 in 10.0 mi Calm Calm - N/A   Clear
12:55 AM 53.6 °F - 53.6 °F 100% 29.81 in 10.0 mi Calm Calm - N/A   Clear
1:06 AM 53.6 °F - 53.6 °F 100% 29.80 in 10.0 mi South 3.5 mph - N/A   Clear
1:46 AM 53.6 °F - 51.8 °F 94% 29.80 in 10.0 mi Calm Calm - N/A   Clear
1:55 AM 53.6 °F - 51.8 °F 94% 29.80 in 10.0 mi Calm Calm - N/A   Clear
2:55 AM 53.6 °F - 53.6 °F 100% 29.79 in 10.0 mi South 3.5 mph - N/A   Clear
3:55 AM 57.2 °F - 55.4 °F 94% 29.79 in 10.0 mi South 4.6 mph - N/A   Clear
4:26 AM 57.2 °F - 55.4 °F 94% 29.79 in 10.0 mi South 4.6 mph - N/A   Scattered Clouds
4:55 AM 55.4 °F - 55.4 °F 100% 29.78 in 10.0 mi South 3.5 mph - N/A   Clear
5:55 AM 55.4 °F - 55.4 °F 100% 29.78 in 10.0 mi South 3.5 mph - N/A   Scattered Clouds
6:55 AM 55.4 °F - 55.4 °F 100% 29.75 in 10.0 mi Calm Calm - N/A   Clear
8:55 AM 66.2 °F - 60.8 °F 83% 29.82 in 10.0 mi South 3.5 mph - N/A   Clear
9:46 AM 71.6 °F - 60.8 °F 69% 29.80 in 10.0 mi South 3.5 mph - N/A   Clear
9:55 AM 71.6 °F - 60.8 °F 69% 29.80 in 10.0 mi SSW 4.6 mph - N/A   Clear
10:55 AM 75.2 °F - 59.0 °F 57% 29.79 in 10.0 mi SW 6.9 mph - N/A   Clear
11:46 AM 77.0 °F - 57.2 °F 50% 29.78 in 10.0 mi SSW 8.1 mph - N/A   Clear
11:55 AM 77.0 °F - 57.2 °F 50% 29.78 in 10.0 mi South 4.6 mph - N/A   Clear
12:26 PM 78.8 °F - 57.2 °F 47% 29.77 in 10.0 mi SSE 6.9 mph - N/A   Clear
12:55 PM 78.8 °F - 57.2 °F 47% 29.77 in 10.0 mi South 9.2 mph - N/A   Clear
1:55 PM 80.6 °F 80.5 °F 55.4 °F 42% 29.75 in 10.0 mi South 6.9 mph - N/A   Clear
2:26 PM 80.6 °F 80.8 °F 57.2 °F 45% 29.75 in 10.0 mi SSW 9.2 mph - N/A   Clear
2:55 PM 82.4 °F 82.0 °F 57.2 °F 42% 29.73 in 10.0 mi South 6.9 mph - N/A   Scattered Clouds
3:10 PM 80.6 °F 80.5 °F 55.4 °F 42% 29.72 in 10.0 mi South 6.9 mph - N/A   Scattered Clouds
3:55 PM 82.4 °F 81.7 °F 55.4 °F 39% 29.72 in 10.0 mi SSW 6.9 mph - N/A   Clear
4:26 PM 82.4 °F 81.4 °F 53.6 °F 37% 29.72 in 10.0 mi SSW 5.8 mph - N/A   Scattered Clouds
4:55 PM 78.8 °F - 55.4 °F 44% 29.72 in 10.0 mi SW 5.8 mph - N/A   Scattered Clouds
5:23 PM 78.8 °F - 59.0 °F 51% 29.71 in 10.0 mi SW 4.6 mph - N/A   Scattered Clouds
5:41 PM 77.0 °F - 60.8 °F 57% 29.71 in 10.0 mi SSW 3.5 mph - N/A   Scattered Clouds
5:55 PM 78.8 °F - 60.8 °F 54% 29.71 in 10.0 mi Calm Calm - N/A   Scattered Clouds
6:55 PM 75.2 °F - 64.4 °F 69% 29.70 in 10.0 mi Calm Calm - N/A   Scattered Clouds
7:55 PM 69.8 °F - 64.4 °F 83% 29.71 in 10.0 mi Calm Calm - N/A   Scattered Clouds
9:40 PM 68.0 °F - 60.8 °F 78% 29.76 in 10.0 mi NW 4.6 mph - N/A   Overcast
9:55 PM 68.0 °F - 60.8 °F 78% 29.76 in 10.0 mi North 4.6 mph - N/A   Overcast
10:55 PM 64.4 °F - 60.8 °F 88% 29.75 in 10.0 mi Calm Calm - N/A   Scattered Clouds
11:42 PM 62.6 °F - 60.8 °F 94% 29.76 in 10.0 mi WSW 3.5 mph - N/A   Mostly Cloudy